Total_Precipitation_Accumulation
0.01 0.08 0.31 0.35 0.24 0.45 1.03 1.38 1.15 0.46 0.47 1.14 1.73 0.93 0.15 0.00 0.00 0.00 0.00 0.00 0.00 0.00 0.00 0.00 0.00 0.02 0.03 0.00 0.00 0.00 0.00 0.04 0.03 0.00 0.00 0.00 0.00 0.00 0.03 0.09 0.13 0.10 0.13 0.08
0.01 0.01 0.11 0.51 0.50 0.53 1.07 1.20 0.86 0.43 0.59 1.11 0.78 0.29 0.04 0.00 0.00 0.01 0.02 0.01 0.00 0.00 0.00 0.00 0.00 0.03 0.05 0.05 0.03 0.03 0.03 0.13 0.15 0.04 0.03 0.02 0.01 0.01 0.01 0.06 0.19 0.26 0.30 0.12
0.02 0.02 0.04 0.21 0.69 0.82 1.04 0.97 0.85 0.96 0.92 0.63 0.31 0.18 0.09 0.03 0.00 0.02 0.04 0.07 0.01 0.00 0.00 0.00 0.00 0.08 0.09 0.08 0.13 0.19 0.20 0.25 0.31 0.23 0.10 0.12 0.12 0.06 0.08 0.16 0.31 0.26 0.13 0.05
0.03 0.04 0.06 0.16 0.30 0.97 1.11 1.00 0.71 0.66 0.92 0.60 0.19 0.09 0.07 0.03 0.01 0.01 0.06 0.30 0.10 0.02 0.04 0.01 0.03 0.09 0.11 0.12 0.23 0.30 0.44 0.58 0.48 0.32 0.22 0.18 0.18 0.11 0.05 0.11 0.17 0.32 0.15 0.08
0.02 0.09 0.17 0.14 0.25 0.68 1.00 0.81 0.45 0.36 0.25 0.17 0.16 0.12 0.08 0.04 0.01 0.02 0.04 0.08 0.02 0.05 0.08 0.04 0.05 0.10 0.13 0.08 0.07 0.18 0.32 0.48 0.47 0.32 0.36 0.28 0.19 0.06 0.04 0.11 0.16 0.25 0.23 0.09
0.02 0.04 0.28 0.32 0.26 0.64 1.09 0.72 0.31 0.21 0.22 0.13 0.26 0.18 0.07 0.04 0.04 0.03 0.02 0.05 0.11 0.09 0.04 0.10 0.08 0.11 0.09 0.09 0.09 0.14 0.20 0.17 0.26 0.22 0.21 0.31 0.21 0.03 0.04 0.06 0.13 0.23 0.28 0.14
0.03 0.09 0.24 0.42 0.38 0.60 0.56 0.29 0.32 0.43 0.24 0.15 0.16 0.04 0.02 0.01 0.03 0.08 0.05 0.06 0.17 0.07 0.09 0.13 0.12 0.08 0.07 0.06 0.03 0.06 0.17 0.23 0.42 0.30 0.19 0.48 0.12 0.01 0.01 0.01 0.03 0.03 0.03 0.02
0.04 0.12 0.22 0.31 0.47 0.62 0.48 0.26 0.25 0.52 0.51 0.12 0.07 0.03 0.03 0.04 0.05 0.06 0.08 0.06 0.10 0.12 0.31 0.60 0.44 0.23 0.22 0.06 0.01 0.01 0.02 0.15 0.42 0.40 0.23 0.12 0.02 0.00 0.00 0.01 0.01 0.00 0.00 0.00
0.14 0.16 0.22 0.18 0.41 0.81 0.42 0.34 0.25 0.30 0.48 0.33 0.10 0.09 0.10 0.13 0.14 0.20 0.14 0.12 0.07 0.19 0.48 0.69 0.46 0.29 0.19 0.10 0.05 0.01 0.02 0.10 0.33 0.31 0.30 0.12 0.00 0.00 0.00 0.01 0.04 0.00 0.00 0.00
0.34 0.24 0.21 0.20 0.38 0.57 0.44 0.30 0.21 0.36 0.56 0.19 0.19 0.19 0.12 0.08 0.13 0.28 0.19 0.26 0.23 0.20 0.42 0.51 0.37 0.16 0.08 0.16 0.13 0.12 0.18 0.28 0.35 0.26 0.29 0.10 0.00 0.00 0.00 0.03 0.01 0.00 0.00 0.00
0.32 0.21 0.17 0.31 0.38 0.40 0.48 0.33 0.14 0.22 0.33 0.12 0.10 0.23 0.28 0.20 0.19 0.22 0.28 0.45 0.43 0.45 0.34 0.28 0.19 0.14 0.07 0.06 0.03 0.04 0.17 0.36 0.38 0.43 0.54 0.20 0.00 0.00 0.01 0.00 0.00 0.00 0.00 0.00
0.45 0.21 0.15 0.39 0.49 0.39 0.51 0.34 0.19 0.19 0.31 0.19 0.09 0.09 0.17 0.20 0.19 0.24 0.27 0.37 0.38 0.48 0.44 0.23 0.15 0.09 0.06 0.07 0.08 0.05 0.07 0.04 0.09 0.18 0.21 0.06 0.00 0.00 0.00 0.00 0.00 0.00 0.00 0.00
0.50 0.34 0.26 0.52 0.53 0.42 0.50 0.30 0.18 0.33 0.55 0.33 0.17 0.21 0.16 0.18 0.27 0.21 0.38 0.26 0.19 0.30 0.38 0.50 0.44 0.30 0.13 0.09 0.04 0.05 0.02 0.01 0.03 0.04 0.00 0.00 0.00 0.00 0.00 0.00 0.00 0.00 0.00 0.00
0.47 0.67 0.55 0.55 0.42 0.49 0.50 0.43 0.30 0.40 0.65 0.50 0.21 0.30 0.20 0.17 0.48 0.17 0.20 0.18 0.11 0.19 0.40 0.71 0.58 0.42 0.30 0.27 0.18 0.16 0.14 0.16 0.16 0.14 0.05 0.03 0.01 0.01 0.03 0.04 0.02 0.00 0.00 0.00
0.44 0.73 0.68 0.59 0.62 0.60 0.67 0.52 0.43 0.37 0.59 0.62 0.34 0.35 0.27 0.15 0.57 0.31 0.18 0.19 0.21 0.29 0.38 0.41 0.30 0.20 0.25 0.26 0.22 0.08 0.02 0.06 0.08 0.09 0.12 0.09 0.11 0.07 0.07 0.07 0.02 0.01 0.00 0.00
0.44 0.58 0.61 0.89 0.92 0.85 1.20 1.10 0.47 0.35 0.33 0.61 0.42 0.28 0.34 0.24 0.75 0.60 0.29 0.38 0.27 0.39 0.46 0.28 0.19 0.22 0.33 0.34 0.18 0.05 0.02 0.02 0.05 0.08 0.05 0.03 0.02 0.01 0.01 0.03 0.03 0.02 0.00 0.00
0.28 0.31 0.41 0.63 0.51 0.53 0.62 0.41 0.21 0.26 0.47 0.91 0.59 0.32 0.27 0.38 0.82 1.00 0.65 0.69 0.60 0.44 0.52 0.40 0.26 0.27 0.31 0.27 0.07 0.03 0.03 0.05 0.03 0.01 0.00 0.00 0.00 0.00 0.00 0.00 0.00 0.00 0.00 0.00
0.13 0.21 0.15 0.22 0.45 0.48 0.38 0.43 0.43 0.36 0.49 0.46 0.35 0.20 0.36 0.45 0.83 1.05 0.70 0.74 0.83 0.58 0.39 0.28 0.18 0.19 0.37 0.30 0.03 0.01 0.01 0.01 0.02 0.01 0.00 0.00 0.00 0.00 0.00 0.00 0.00 0.00 0.00 0.00
0.15 0.19 0.18 0.33 0.29 0.16 0.06 0.08 0.42 0.55 0.30 0.27 0.09 0.13 0.47 0.47 0.43 0.55 0.50 0.39 0.58 0.45 0.20 0.12 0.20 0.21 0.20 0.05 0.05 0.04 0.02 0.02 0.02 0.02 0.03 0.02 0.02 0.02 0.02 0.01 0.00 0.00 0.00 0.00
0.15 0.16 0.14 0.12 0.05 0.06 0.07 0.11 0.38 0.68 0.44 0.27 0.11 0.11 0.36 0.41 0.25 0.18 0.17 0.16 0.20 0.20 0.12 0.11 0.16 0.10 0.03 0.01 0.03 0.05 0.03 0.03 0.03 0.02 0.06 0.06 0.04 0.02 0.01 0.00 0.00 0.00 0.00 0.01
0.12 0.19 0.29 0.20 0.07 0.14 0.23 0.30 0.21 0.17 0.30 0.11 0.03 0.05 0.29 0.24 0.26 0.13 0.10 0.14 0.10 0.14 0.09 0.06 0.07 0.03 0.04 0.01 0.01 0.02 0.01 0.02 0.01 0.01 0.01 0.00 0.00 0.00 0.00 0.00 0.00 0.00 0.00 0.00
0.12 0.17 0.16 0.15 0.14 0.23 0.20 0.19 0.11 0.09 0.18 0.06 0.04 0.06 0.25 0.19 0.17 0.18 0.10 0.14 0.16 0.16 0.14 0.07 0.09 0.05 0.02 0.02 0.00 0.01 0.00 0.00 0.00 0.00 0.00 0.00 0.00 0.00 0.00 0.00 0.00 0.00 0.00 0.00
0.15 0.21 0.12 0.18 0.09 0.20 0.06 0.03 0.03 0.13 0.16 0.07 0.08 0.16 0.15 0.21 0.26 0.27 0.19 0.04 0.15 0.16 0.44 0.30 0.07 0.03 0.00 0.00 0.00 0.00 0.00 0.00 0.00 0.00 0.00 0.00 0.00 0.00 0.00 0.00 0.00 0.00 0.01 0.01
0.29 0.22 0.18 0.19 0.15 0.05 0.07 0.14 0.37 0.20 0.40 0.37 0.31 0.24 0.28 0.26 0.09 0.12 0.15 0.06 0.02 0.05 0.07 0.05 0.01 0.01 0.00 0.00 0.00 0.00 0.00 0.01 0.01 0.00 0.00 0.00 0.00 0.00 0.00 0.00 0.00 0.01 0.02 0.04
0.36 0.28 0.29 0.08 0.21 0.13 0.08 0.06 0.03 0.02 0.29 0.75 0.58 0.40 0.31 0.14 0.03 0.05 0.02 0.06 0.04 0.00 0.01 0.02 0.00 0.00 0.01 0.02 0.02 0.00 0.00 0.00 0.00 0.00 0.00 0.00 0.00 0.00 0.01 0.01 0.02 0.02 0.04 0.06
0.33 0.22 0.16 0.09 0.10 0.10 0.05 0.01 0.01 0.06 0.64 0.73 0.38 0.22 0.18 0.06 0.00 0.01 0.00 0.00 0.00 0.01 0.01 0.01 0.01 0.01 0.01 0.01 0.00 0.00 0.00 0.00 0.00 0.00 0.00 0.00 0.00 0.00 0.01 0.02 0.02 0.03 0.03 0.05
0.12 0.08 0.04 0.03 0.07 0.04 0.01 0.00 0.01 0.04 0.46 0.45 0.14 0.03 0.01 0.00 0.00 0.00 0.00 0.01 0.01 0.01 0.02 0.01 0.01 0.01 0.00 0.00 0.00 0.00 0.00 0.00 0.00 0.00 0.00 0.00 0.01 0.01 0.01 0.02 0.02 0.03 0.06 0.07